Find NNS 30050

NORAD ID: 1514 Int'l Des: 1965-065 Owner: BUWEPS Country: US operational
LEOCIRCULARPOLARONEWEB_TYPE

現在のビュー

3D地球を読み込み中...

NNS 30050について

説明を読み込み中...

次回通過

Passes for default location (London). Set your location on the main map for personalized predictions.

高度履歴

Loading altitude history...

軌道要素

1 1514U 65065F 26150.17370045 .00000131 00000-0 23892-3 0 9996
2 1514 89.9975 227.9004 0069267 209.7791 178.1218 13.35367007958868
Epoch: May 30, 2026 • Age: 10 hours

現在のステータス

高度 1107.2 km
速度 7.32 km/s
衛星直下点 -62.33°S, 53.63°W
タイプ other

Most Searched